TimePST,TemperatureF,Dew PointF,Humidity,Sea Level PressureIn,VisibilityMPH,Wind Direction,Wind SpeedMPH,Gust SpeedMPH,PrecipitationIn,Events,Conditions,WindDirDegrees,DateUTC
12:54 AM,33.1,30.9,92,30.11,5.0,NNE,3.5,-,N/A,,Clear,30,2011-12-18 08:54:00
1:54 AM,30.9,30.0,96,30.12,5.0,NNE,3.5,-,N/A,,Clear,20,2011-12-18 09:54:00
2:54 AM,32.0,30.9,96,30.12,5.0,NNE,5.8,-,N/A,,Clear,30,2011-12-18 10:54:00
3:54 AM,34.0,33.1,96,30.13,3.0,North,4.6,-,N/A,,Clear,350,2011-12-18 11:54:00
4:19 AM,28.4,26.6,93,30.16,1.8,Calm,Calm,-,N/A,,Clear,0,2011-12-18 12:19:00
4:28 AM,30.2,28.4,93,30.16,0.5,Calm,Calm,-,N/A,Fog,Light Freezing Fog,0,2011-12-18 12:28:00
4:35 AM,30.2,30.2,100,30.16,1.0,Calm,Calm,-,N/A,,Clear,0,2011-12-18 12:35:00
4:41 AM,30.2,30.2,100,30.16,3.0,Calm,Calm,-,N/A,,Clear,0,2011-12-18 12:41:00
4:49 AM,28.4,28.4,100,30.16,1.8,Calm,Calm,-,N/A,,Clear,0,2011-12-18 12:49:00
4:54 AM,28.9,28.0,96,30.14,1.5,Calm,Calm,-,N/A,,Clear,0,2011-12-18 12:54:00
5:09 AM,28.4,26.6,93,30.16,0.8,Calm,Calm,-,N/A,,Mist,0,2011-12-18 13:09:00
5:32 AM,33.8,32.0,93,30.16,1.2,NNE,4.6,-,N/A,,Partly Cloudy,30,2011-12-18 13:32:00
5:35 AM,33.8,32.0,93,30.16,3.0,NNE,3.5,-,N/A,,Partly Cloudy,20,2011-12-18 13:35:00
5:42 AM,28.4,28.4,100,30.16,0.8,Calm,Calm,-,N/A,,Mist,0,2011-12-18 13:42:00
5:50 AM,26.6,26.6,100,30.16,0.5,Calm,Calm,-,N/A,Fog,Light Freezing Fog,0,2011-12-18 13:50:00
5:54 AM,27.0,25.0,92,30.14,0.5,Calm,Calm,-,N/A,Fog,Light Freezing Fog,0,2011-12-18 13:54:00
5:57 AM,28.4,26.6,93,30.17,1.0,Calm,Calm,-,N/A,,Mist,0,2011-12-18 13:57:00
6:07 AM,30.2,28.4,93,30.17,3.0,North,4.6,-,N/A,,Scattered Clouds,360,2011-12-18 14:07:00
6:14 AM,30.2,30.2,100,30.18,3.0,North,4.6,-,N/A,,Mostly Cloudy,360,2011-12-18 14:14:00
6:54 AM,36.0,35.1,97,30.16,5.0,NNE,3.5,-,N/A,,Overcast,30,2011-12-18 14:54:00
7:03 AM,37.4,35.6,93,30.19,5.0,Calm,Calm,-,N/A,,Overcast,0,2011-12-18 15:03:00
7:54 AM,37.9,36.0,93,30.19,5.0,Calm,Calm,-,N/A,,Overcast,0,2011-12-18 15:54:00
8:54 AM,41.0,39.0,93,30.19,4.0,Calm,Calm,-,N/A,,Overcast,0,2011-12-18 16:54:00
10:57 AM,46.4,42.8,87,30.22,5.0,Calm,Calm,-,N/A,,Overcast,0,2011-12-18 18:57:00
11:38 AM,48.2,42.8,82,30.20,6.0,Variable,3.5,-,N/A,,Haze,0,2011-12-18 19:38:00
11:54 AM,48.9,43.0,80,30.17,7.0,Calm,Calm,-,N/A,,Scattered Clouds,0,2011-12-18 19:54:00
12:54 PM,51.1,43.0,74,30.16,10.0,West,3.5,-,N/A,,Scattered Clouds,260,2011-12-18 20:54:00
1:54 PM,52.0,43.0,71,30.13,10.0,West,3.5,-,N/A,,Clear,260,2011-12-18 21:54:00
2:54 PM,52.0,43.0,71,30.12,10.0,SSW,4.6,-,N/A,,Clear,210,2011-12-18 22:54:00
3:54 PM,52.0,44.1,74,30.10,10.0,SSW,4.6,-,N/A,,Clear,210,2011-12-18 23:54:00
4:54 PM,46.0,42.1,86,30.09,10.0,SSW,5.8,-,N/A,,Clear,200,2011-12-19 00:54:00
5:54 PM,46.9,43.0,86,30.09,10.0,WSW,8.1,-,N/A,,Clear,250,2011-12-19 01:54:00
6:54 PM,43.0,39.9,89,30.09,10.0,SW,4.6,-,N/A,,Clear,220,2011-12-19 02:54:00
7:54 PM,41.0,39.0,93,30.10,10.0,WSW,3.5,-,N/A,,Clear,240,2011-12-19 03:54:00
9:54 PM,36.0,36.0,100,30.10,6.0,SSE,3.5,-,N/A,,Clear,150,2011-12-19 05:54:00
10:22 PM,37.4,35.6,93,30.11,1.2,ESE,4.6,-,N/A,,Partly Cloudy,110,2011-12-19 06:22:00
10:33 PM,37.4,35.6,93,30.11,4.0,ESE,4.6,-,N/A,,Clear,120,2011-12-19 06:33:00
10:54 PM,37.0,36.0,96,30.09,5.0,Calm,Calm,-,N/A,,Mostly Cloudy,0,2011-12-19 06:54:00
11:54 PM,42.1,39.9,92,30.10,7.0,North,4.6,-,N/A,,Overcast,360,2011-12-19 07:54:00